Total_Precipitation_Accumulation
2.45 2.49 2.36 2.40 2.37 2.61 3.03 3.57 3.51 3.69 3.65 3.28 2.81 2.63 2.66 2.50 2.46 2.41 2.04 2.12 2.34 2.39 2.44 2.45 2.42 2.38 2.40 2.29 2.10 1.92 1.68 1.54 1.33 1.07 0.88 0.80 0.87 0.83 0.67 0.56 0.47 0.40 0.36
2.26 2.24 2.20 2.40 2.46 2.40 2.56 3.00 3.19 3.56 3.54 3.18 2.66 2.42 2.38 2.43 2.30 2.30 2.05 2.09 2.24 2.11 2.14 2.43 2.68 2.78 2.69 2.54 2.39 2.19 1.94 1.76 1.50 1.16 1.00 0.90 0.75 0.74 0.77 0.65 0.53 0.43 0.36
1.94 1.95 2.04 2.06 2.15 2.08 2.15 2.37 2.60 2.87 2.83 2.69 2.60 2.49 2.39 2.30 2.13 2.15 2.20 2.11 1.86 1.95 2.07 2.23 2.48 2.63 2.79 2.92 2.84 2.58 2.30 1.93 1.57 1.25 1.00 0.85 0.74 0.64 0.60 0.60 0.58 0.51 0.39
1.43 1.56 1.61 1.60 1.63 1.52 1.64 1.96 2.04 2.28 2.52 2.59 2.69 2.46 2.32 2.37 2.18 2.15 2.11 2.11 2.12 1.84 2.11 2.20 2.26 2.30 2.62 2.98 3.10 3.11 2.73 2.24 1.82 1.53 1.21 0.93 0.78 0.65 0.53 0.50 0.55 0.55 0.44
1.32 1.42 1.53 1.60 1.35 1.35 1.41 1.29 1.67 1.90 2.15 2.27 1.98 2.10 1.95 1.99 1.90 1.68 1.70 1.63 1.88 1.88 2.00 1.98 2.09 2.08 2.37 3.04 3.53 3.70 3.45 2.84 2.25 1.90 1.68 1.36 1.13 0.90 0.68 0.56 0.51 0.49 0.43
1.42 1.57 1.43 1.41 1.27 1.45 1.60 1.66 1.92 1.85 1.78 1.87 1.59 1.80 1.68 1.52 1.54 1.47 1.37 1.44 1.56 1.47 1.71 1.91 1.99 1.75 2.02 2.66 3.27 3.65 3.79 3.57 3.00 2.43 2.17 1.97 1.78 1.37 0.99 0.78 0.64 0.56 0.49
1.56 1.73 1.48 1.74 1.54 1.50 1.56 1.58 1.71 1.71 1.55 1.52 1.87 2.03 1.61 1.23 1.24 1.13 1.12 1.31 1.39 1.44 1.74 2.00 2.05 2.04 1.81 1.75 1.98 2.61 3.31 3.88 3.90 3.31 2.85 2.57 2.39 1.92 1.36 1.13 0.99 0.79 0.69
1.45 1.41 1.68 1.56 1.57 1.65 1.66 1.74 1.84 1.84 1.65 1.59 1.88 2.23 1.96 1.87 1.65 0.96 1.07 1.22 1.30 1.53 1.63 1.64 1.81 2.05 1.82 1.94 1.48 1.50 2.23 2.95 3.74 3.81 3.35 2.91 2.75 2.40 1.86 1.54 1.30 1.11 0.98
1.30 1.37 1.41 1.46 1.67 1.50 1.75 1.93 1.86 1.92 1.91 1.74 1.74 2.06 2.12 2.06 1.75 1.34 1.08 1.06 1.22 1.55 1.60 1.68 1.59 1.74 1.89 2.11 2.03 1.56 1.64 1.87 2.68 3.60 3.76 3.27 2.76 2.40 2.14 1.97 1.77 1.46 1.30
1.26 1.27 1.29 1.47 1.65 1.47 1.83 1.53 1.57 1.82 1.97 1.79 1.72 1.59 1.64 1.79 1.91 1.81 1.51 1.19 1.18 1.34 1.44 1.37 1.42 1.62 1.75 1.84 1.89 1.43 1.18 1.24 1.89 2.86 3.46 3.47 3.03 2.54 2.22 2.18 2.30 2.15 1.77
1.38 1.20 1.30 1.44 1.52 1.44 1.56 1.59 1.84 1.77 1.75 1.73 1.74 1.76 1.83 1.71 1.52 1.62 1.69 1.60 1.47 1.17 1.07 1.12 1.25 1.43 1.48 1.61 1.85 1.47 1.18 1.20 1.38 1.75 2.20 2.59 2.77 2.62 2.39 2.46 2.82 3.05 2.82
1.41 1.32 1.39 1.47 1.43 1.38 1.46 1.51 1.64 1.67 1.76 1.85 1.70 1.60 1.73 1.64 1.55 1.58 1.42 1.39 1.44 1.09 0.94 0.95 1.06 1.26 1.35 1.49 1.47 1.28 1.30 1.49 1.48 1.41 1.44 1.61 1.96 2.22 2.31 2.44 2.76 3.23 3.49
1.27 1.29 1.40 1.57 1.51 1.53 1.51 1.63 1.64 1.60 1.68 1.74 1.61 1.48 1.45 1.34 1.44 1.55 1.57 1.38 1.29 1.01 1.01 0.92 0.97 1.09 1.09 1.43 1.71 1.70 1.49 1.57 1.48 1.39 1.38 1.37 1.47 1.68 1.80 1.96 2.29 2.69 3.11
1.35 1.28 1.38 1.42 1.46 1.51 1.51 1.82 1.64 1.54 1.59 1.57 1.42 1.61 1.53 1.23 1.26 1.38 1.56 1.71 1.54 1.27 1.24 1.12 1.09 1.16 1.19 1.38 1.65 1.79 1.49 1.47 1.29 1.21 1.18 1.16 1.18 1.25 1.37 1.47 1.59 1.76 1.99
1.46 1.39 1.31 1.31 1.40 1.51 1.63 1.76 1.65 1.64 1.69 1.51 1.43 1.56 1.45 1.25 1.23 1.19 1.42 1.73 1.87 1.68 1.50 1.36 1.31 1.32 1.33 1.39 1.55 1.44 1.46 1.45 1.31 1.19 1.10 1.04 1.02 0.99 0.99 1.08 1.17 1.20 1.24
1.32 1.37 1.37 1.33 1.41 1.49 1.63 1.75 1.76 1.86 1.90 1.71 1.60 1.60 1.49 1.34 1.40 1.26 1.33 1.59 1.78 1.92 1.76 1.30 1.34 1.34 1.42 1.32 1.53 1.42 1.44 1.47 1.31 1.19 1.09 1.04 1.00 0.98 0.98 1.00 1.05 1.13 1.17
1.34 1.37 1.40 1.43 1.44 1.48 1.63 1.71 1.61 1.81 1.93 1.95 1.77 1.67 1.61 1.62 1.62 1.49 1.51 1.60 1.66 1.86 1.85 1.50 1.44 1.57 1.67 1.58 1.61 1.56 1.43 1.44 1.33 1.27 1.11 1.04 0.99 0.97 0.99 0.98 0.99 0.99 1.03
1.46 1.45 1.48 1.56 1.54 1.56 1.66 1.61 1.48 1.55 1.74 1.94 2.13 2.19 1.97 1.89 1.85 1.70 1.68 1.66 1.68 1.82 1.87 1.77 1.68 1.75 1.78 1.72 1.68 1.50 1.26 1.18 1.23 1.34 1.25 1.12 1.05 0.99 0.95 0.94 0.95 0.94 0.94
1.67 1.69 1.72 1.66 1.66 1.68 1.63 1.56 1.55 1.60 1.71 1.79 1.98 2.16 2.17 2.25 2.03 1.97 1.88 1.80 1.76 1.72 1.86 1.81 1.69 1.87 1.90 1.87 1.75 1.43 1.30 1.32 1.18 1.35 1.34 1.15 1.03 0.98 0.93 0.89 0.87 0.87 0.87
1.86 1.86 1.87 1.80 1.77 1.80 1.77 1.72 1.69 1.69 1.75 1.75 1.77 1.83 1.95 2.20 2.19 2.18 2.04 2.02 2.03 2.01 2.05 1.98 1.89 1.99 2.17 2.21 2.02 1.66 1.51 1.44 1.33 1.18 1.26 1.15 1.08 1.02 0.95 0.89 0.85 0.81 0.82
1.99 2.08 2.04 1.95 1.92 1.93 1.78 1.85 2.00 2.00 2.05 1.90 1.81 1.74 1.72 1.95 2.05 2.06 1.86 1.92 2.08 2.13 2.16 2.12 2.08 2.13 2.20 2.31 2.05 1.80 1.62 1.58 1.52 1.34 1.25 1.09 1.04 0.99 1.02 1.04 0.99 0.90 0.85
2.27 2.17 2.08 2.08 2.07 1.89 2.00 2.05 1.97 2.03 2.19 2.18 2.06 1.98 1.86 1.79 1.78 1.83 1.87 1.91 1.97 1.97 2.01 2.05 2.01 2.04 2.12 2.22 2.31 2.12 1.87 1.71 1.57 1.40 1.40 1.25 1.16 1.10 0.99 0.92 1.01 0.98 0.90
2.28 2.18 2.17 2.21 2.14 2.18 2.14 1.91 1.78 1.79 1.85 1.95 2.03 2.02 1.81 1.67 1.78 1.72 1.87 1.89 1.78 1.71 1.68 1.75 1.79 1.85 2.22 2.46 2.66 2.38 2.13 1.92 1.70 1.56 1.51 1.33 1.22 1.11 0.98 0.93 1.04 0.92 0.86
2.21 2.18 2.17 2.07 2.00 1.97 1.97 1.75 1.70 1.64 1.62 1.59 1.71 1.81 1.77 1.68 1.67 1.73 1.67 1.50 1.38 1.38 1.39 1.32 1.36 1.58 1.93 2.40 2.63 2.63 2.58 2.33 2.06 1.71 1.48 1.28 1.09 1.02 0.96 0.93 1.02 0.96 0.87
2.08 1.98 1.89 1.85 1.81 1.85 1.97 1.76 1.67 1.60 1.64 1.53 1.51 1.51 1.51 1.42 1.51 1.53 1.44 1.28 1.19 1.16 1.20 1.20 1.19 1.34 1.58 1.90 2.26 2.42 2.35 2.15 1.84 1.49 1.29 1.16 1.04 1.03 0.98 0.91 0.92 1.03 0.93
2.20 2.15 2.02 1.95 1.91 1.87 1.99 1.75 1.62 1.54 1.58 1.54 1.52 1.54 1.62 1.45 1.34 1.23 1.15 1.17 1.05 0.99 1.07 1.05 1.03 1.09 1.20 1.44 1.82 1.94 1.94 1.94 1.74 1.48 1.20 1.14 1.05 1.15 1.09 0.94 0.85 0.86 0.87